Torna al catalogo

KSLV-II R/B

AttivoSSO
NORAD 56750·ROCKET BODY·🇰🇷 South Korea

Lanciato May 25, 2023 da Naro Space Center

Loading…

Prossimi Passaggi (prossime 24 ore)

TLE

AggiornatoSource: Space-Track

Epoca: Sep 13, 2026, 14:01 UTC

1 56750U 23072H   26256.58466926  .00006153  00000-0  17796-3 0  9992
2 56750  97.4794 104.6732 0024291  10.3824 349.7916 15.35707471183959

Traccia KSLV-II R/B in tempo reale con AllMySat

Download on the App Store